,,,PA_Meas_PMT16A,,PR_Meas_QMR101_102,,RH_Meas_QMH101,,SR_Meas_QMS101,,TA_Meas_QMH101,,GenWind,,GenWind,
date,time,status,PA,status,PR,status,RH,status,SR,status,TA,status,DirAvg,status,SpdAvg,
2012-03-06, 00:00:04,VALID,1001.07,VALID,0,VALID,92.7443,VALID,0.0815089,VALID,24.7529,VALID,342,VALID,0.625781,
2012-03-06, 00:01:04,VALID,1001.06,VALID,0,VALID,92.874,VALID,0,VALID,24.7548,VALID,342,VALID,0.507031,
2012-03-06, 00:02:04,VALID,1001.08,VALID,0,VALID,92.9198,VALID,0,VALID,24.714,VALID,342,VALID,0.494141,
2012-03-06, 00:03:04,VALID,1001.08,VALID,0,VALID,93.0418,VALID,0.0815089,VALID,24.6926,VALID,342,VALID,0.496875,
2012-03-06, 00:04:04,VALID,1001.06,VALID,0,VALID,93.0952,VALID,0,VALID,24.6945,VALID,342,VALID,0.540234,
2012-03-06, 00:05:04,VALID,1001.07,VALID,0,VALID,93.1334,VALID,0.0815089,VALID,24.675,VALID,342,VALID,0.399219,
2012-03-06, 00:06:04,VALID,1001.04,VALID,0,VALID,93.1639,VALID,0,VALID,24.6361,VALID,342,VALID,0.328125,
2012-03-06, 00:07:04,VALID,1001.06,VALID,0,VALID,93.2173,VALID,0.0815089,VALID,24.6556,VALID,342,VALID,0.419922,
2012-03-06, 00:08:04,VALID,1001.03,VALID,0,VALID,93.2936,VALID,0,VALID,24.6361,VALID,342,VALID,0.552344,
2012-03-06, 00:09:04,VALID,1001.05,VALID,0,VALID,93.3928,VALID,0.0815089,VALID,24.638,VALID,342,VALID,0.477344,
2012-03-06, 00:10:04,VALID,1001.02,VALID,0,VALID,93.4385,VALID,0,VALID,24.6361,VALID,342,VALID,0.277734,
2012-03-06, 00:11:04,VALID,1001.02,VALID,0,VALID,93.4385,VALID,0.0815089,VALID,24.6361,VALID,342,VALID,0,
2012-03-06, 00:12:04,VALID,1001.03,VALID,0,VALID,93.4462,VALID,0.0815089,VALID,24.6166,VALID,342,VALID,0,
2012-03-06, 00:13:04,VALID,1000.99,VALID,0,VALID,93.4004,VALID,0,VALID,24.6166,VALID,342,VALID,0,
2012-03-06, 00:14:04,VALID,1001.01,VALID,0,VALID,93.4309,VALID,0.0815089,VALID,24.5777,VALID,342,VALID,0,
2012-03-06, 00:15:04,VALID,1001.01,VALID,0,VALID,93.4233,VALID,0,VALID,24.5972,VALID,342,VALID,0,
2012-03-06, 00:16:04,VALID,1001.01,VALID,0,VALID,93.4996,VALID,0,VALID,24.6185,VALID,342,VALID,0,
2012-03-06, 00:17:04,VALID,1000.99,VALID,0,VALID,93.6064,VALID,0,VALID,24.6185,VALID,342,VALID,0,
2012-03-06, 00:18:04,VALID,1000.96,VALID,0,VALID,93.5987,VALID,0,VALID,24.5972,VALID,342,VALID,0,
2012-03-06, 00:19:04,VALID,1000.97,VALID,0,VALID,93.5987,VALID,0,VALID,24.5972,VALID,342,VALID,0,
2012-03-06, 00:20:04,VALID,1000.94,VALID,0,VALID,93.5453,VALID,0,VALID,24.5972,VALID,342,VALID,0,
2012-03-06, 00:21:04,VALID,1000.97,VALID,0,VALID,93.4767,VALID,0,VALID,24.5369,VALID,342,VALID,0,
2012-03-06, 00:22:04,VALID,1000.97,VALID,0,VALID,93.4843,VALID,0.0815089,VALID,24.5388,VALID,342,VALID,0,
2012-03-06, 00:23:04,VALID,1000.97,VALID,0,VALID,93.5453,VALID,0,VALID,24.5193,VALID,342,VALID,0,
2012-03-06, 00:24:04,VALID,1001,VALID,0,VALID,93.5911,VALID,0,VALID,24.5193,VALID,342,VALID,0,
2012-03-06, 00:25:04,VALID,1001,VALID,0,VALID,93.6369,VALID,0.0815089,VALID,24.5193,VALID,342,VALID,0,
2012-03-06, 00:26:04,VALID,1001.02,VALID,0,VALID,93.6369,VALID,0.0815089,VALID,24.5193,VALID,342,VALID,0,
2012-03-06, 00:27:04,VALID,1000.99,VALID,0,VALID,93.6369,VALID,0,VALID,24.4998,VALID,342,VALID,0,
2012-03-06, 00:28:04,VALID,1001,VALID,0,VALID,93.6369,VALID,0.0815089,VALID,24.4804,VALID,342,VALID,0,
2012-03-06, 00:29:04,VALID,1000.99,VALID,0,VALID,93.6521,VALID,0.0815089,VALID,24.4804,VALID,342,VALID,0,
2012-03-06, 00:30:04,VALID,1000.99,VALID,0,VALID,93.553,VALID,0.0815089,VALID,24.4414,VALID,342,VALID,0,
2012-03-06, 00:31:04,VALID,1000.96,VALID,0,VALID,93.5072,VALID,0.0815089,VALID,24.3812,VALID,342,VALID,0,
2012-03-06, 00:32:04,VALID,1000.96,VALID,0,VALID,93.553,VALID,0.0815089,VALID,24.3422,VALID,342,VALID,0,
2012-03-06, 00:33:04,VALID,1000.93,VALID,0,VALID,93.6521,VALID,0,VALID,24.3636,VALID,342,VALID,0,
2012-03-06, 00:34:04,VALID,1000.93,VALID,0,VALID,93.7208,VALID,0,VALID,24.3654,VALID,342,VALID,0.371094,
2012-03-06, 00:35:04,VALID,1000.93,VALID,0,VALID,93.6979,VALID,0,VALID,24.3246,VALID,342,VALID,0.58125,
2012-03-06, 00:36:04,VALID,1000.9,VALID,0,VALID,93.8123,VALID,0.0815089,VALID,24.3052,VALID,342,VALID,0.442578,
2012-03-06, 00:37:04,VALID,1000.92,VALID,0,VALID,93.881,VALID,0,VALID,24.3246,VALID,342,VALID,0.466016,
2012-03-06, 00:38:04,VALID,1000.88,VALID,0,VALID,93.9039,VALID,0.0815089,VALID,24.3033,VALID,342,VALID,0.313672,
2012-03-06, 00:39:04,VALID,1000.89,VALID,0,VALID,93.942,VALID,0,VALID,24.3246,VALID,342,VALID,0.33125,
2012-03-06, 00:40:04,VALID,1000.89,VALID,0,VALID,93.9802,VALID,0,VALID,24.3265,VALID,342,VALID,0.416406,
2012-03-06, 00:41:04,VALID,1000.92,VALID,0,VALID,94.0183,VALID,0,VALID,24.3052,VALID,342,VALID,0.555859,
2012-03-06, 00:42:04,VALID,1000.92,VALID,0,VALID,94.0259,VALID,0,VALID,24.3052,VALID,357,VALID,0.660156,
2012-03-06, 00:43:04,VALID,1000.89,VALID,0,VALID,94.0412,VALID,0,VALID,24.3459,VALID,4,VALID,0.501172,
2012-03-06, 00:44:04,VALID,1000.88,VALID,0,VALID,94.0259,VALID,0,VALID,24.3052,VALID,4,VALID,0.548047,
2012-03-06, 00:45:04,VALID,1000.86,VALID,0,VALID,94.0336,VALID,0,VALID,24.307,VALID,3,VALID,0.563281,
2012-03-06, 00:46:04,VALID,1000.84,VALID,0,VALID,94.0259,VALID,0,VALID,24.3088,VALID,3,VALID,0.488281,
2012-03-06, 00:47:04,VALID,1000.83,VALID,0,VALID,94.0107,VALID,0,VALID,24.3088,VALID,3,VALID,0.30625,
2012-03-06, 00:48:04,VALID,1000.79,VALID,0,VALID,94.0412,VALID,0,VALID,24.2681,VALID,3,VALID,0,
2012-03-06, 00:49:04,VALID,1000.76,VALID,0,VALID,94.1099,VALID,0,VALID,24.3088,VALID,3,VALID,0,
2012-03-06, 00:50:04,VALID,1000.77,VALID,0,VALID,94.2396,VALID,0,VALID,24.3265,VALID,354,VALID,0.230469,
2012-03-06, 00:51:04,VALID,1000.76,VALID,0,VALID,94.2701,VALID,0,VALID,24.3459,VALID,354,VALID,0,
2012-03-06, 00:52:04,VALID,1000.81,VALID,0,VALID,94.2853,VALID,0,VALID,24.3441,VALID,354,VALID,0,
2012-03-06, 00:53:04,VALID,1000.83,VALID,0,VALID,94.3082,VALID,0,VALID,24.4043,VALID,354,VALID,0,
2012-03-06, 00:54:04,VALID,1000.85,VALID,0,VALID,94.2548,VALID,0,VALID,24.4043,VALID,354,VALID,0,
2012-03-06, 00:55:04,VALID,1000.84,VALID,0,VALID,94.2014,VALID,0,VALID,24.4043,VALID,354,VALID,0,
2012-03-06, 00:56:04,VALID,1000.85,VALID,0,VALID,94.1633,VALID,0,VALID,24.3849,VALID,354,VALID,0,
2012-03-06, 00:57:04,VALID,1000.83,VALID,0,VALID,94.1556,VALID,0,VALID,24.3849,VALID,354,VALID,0,
2012-03-06, 00:58:04,VALID,1000.82,VALID,0,VALID,94.0717,VALID,0,VALID,24.3246,VALID,354,VALID,0.1375,
2012-03-06, 00:59:04,VALID,1000.83,VALID,0,VALID,94.087,VALID,0,VALID,24.3459,VALID,354,VALID,0.305859,
2012-03-06, 01:00:05,VALID,1000.83,VALID,0,VALID,94.0946,VALID,0,VALID,24.3265,VALID,354,VALID,0.489844,
2012-03-06, 01:01:05,VALID,1000.84,VALID,0,VALID,94.1633,VALID,0,VALID,24.3265,VALID,354,VALID,0.474219,
2012-03-06, 01:02:05,VALID,1000.84,VALID,0,VALID,94.1251,VALID,0,VALID,24.307,VALID,354,VALID,0.511328,
2012-03-06, 01:03:05,VALID,1000.83,VALID,0,VALID,94.148,VALID,0,VALID,24.2857,VALID,354,VALID,0.364844,
2012-03-06, 01:04:05,VALID,1000.82,VALID,0,VALID,94.1328,VALID,0,VALID,24.307,VALID,354,VALID,0.704687,
2012-03-06, 01:05:05,VALID,1000.82,VALID,0,VALID,94.1938,VALID,0,VALID,24.307,VALID,354,VALID,0.747656,
2012-03-06, 01:06:05,VALID,1000.88,VALID,0,VALID,94.2167,VALID,0,VALID,24.3265,VALID,354,VALID,0.401172,
2012-03-06, 01:07:05,VALID,1000.81,VALID,0,VALID,94.2472,VALID,0,VALID,24.3265,VALID,354,VALID,0,
2012-03-06, 01:08:05,VALID,1000.79,VALID,0,VALID,94.2853,VALID,0,VALID,24.3478,VALID,354,VALID,0,
2012-03-06, 01:09:04,VALID,1000.75,VALID,0,VALID,94.3006,VALID,0,VALID,24.3459,VALID,354,VALID,0,
2012-03-06, 01:10:05,VALID,1000.75,VALID,0,VALID,94.354,VALID,0,VALID,24.3849,VALID,354,VALID,0,
2012-03-06, 01:11:05,VALID,1000.72,VALID,0,VALID,94.3921,VALID,0,VALID,24.4238,VALID,354,VALID,0,
2012-03-06, 01:12:05,VALID,1000.7,VALID,0,VALID,94.3616,VALID,0,VALID,24.4238,VALID,354,VALID,0,
2012-03-06, 01:13:05,VALID,1000.69,VALID,0,VALID,94.3692,VALID,0,VALID,24.4025,VALID,354,VALID,0,
2012-03-06, 01:14:05,VALID,1000.66,VALID,0,VALID,94.3692,VALID,0,VALID,24.4414,VALID,354,VALID,0,
2012-03-06, 01:15:05,VALID,1000.61,VALID,0,VALID,94.415,VALID,0,VALID,24.5035,VALID,354,VALID,0,
2012-03-06, 01:16:05,VALID,1000.56,VALID,0,VALID,94.3845,VALID,0,VALID,24.4804,VALID,354,VALID,0.129297,
2012-03-06, 01:17:05,VALID,1000.55,VALID,0,VALID,94.3692,VALID,0,VALID,24.5212,VALID,354,VALID,0.216797,
2012-03-06, 01:18:05,VALID,1000.49,VALID,0,VALID,94.3769,VALID,0,VALID,24.5212,VALID,354,VALID,0.240625,
2012-03-06, 01:19:05,VALID,1000.5,VALID,0,VALID,94.3845,VALID,0,VALID,24.5406,VALID,354,VALID,0.0121094,
2012-03-06, 01:20:05,VALID,1000.46,VALID,0,VALID,94.3692,VALID,0,VALID,24.599,VALID,354,VALID,0,
2012-03-06, 01:21:05,VALID,1000.43,VALID,0,VALID,94.3921,VALID,0,VALID,24.6185,VALID,354,VALID,0,
2012-03-06, 01:22:05,VALID,1000.42,VALID,0,VALID,94.3845,VALID,0,VALID,24.638,VALID,354,VALID,0,
2012-03-06, 01:23:05,VALID,1000.4,VALID,0,VALID,94.3387,VALID,0,VALID,24.6574,VALID,354,VALID,0,
2012-03-06, 01:24:05,VALID,1000.41,VALID,0,VALID,94.354,VALID,0,VALID,24.6769,VALID,354,VALID,0,
2012-03-06, 01:25:05,VALID,1000.39,VALID,0,VALID,94.3692,VALID,0,VALID,24.7159,VALID,354,VALID,0,
2012-03-06, 01:26:05,VALID,1000.39,VALID,0,VALID,94.293,VALID,0,VALID,24.675,VALID,354,VALID,0,
2012-03-06, 01:27:05,VALID,1000.37,VALID,0,VALID,94.2777,VALID,0,VALID,24.7159,VALID,354,VALID,0,
2012-03-06, 01:28:05,VALID,1000.36,VALID,0,VALID,94.2167,VALID,0,VALID,24.6964,VALID,354,VALID,0,
2012-03-06, 01:29:05,VALID,1000.35,VALID,0,VALID,94.1633,VALID,0,VALID,24.6964,VALID,354,VALID,0,
2012-03-06, 01:30:05,VALID,1000.3,VALID,0,VALID,94.1404,VALID,0,VALID,24.6964,VALID,354,VALID,0,
2012-03-06, 01:31:05,VALID,1000.33,VALID,0,VALID,94.1022,VALID,0,VALID,24.6556,VALID,354,VALID,0,
2012-03-06, 01:32:05,VALID,1000.29,VALID,0,VALID,94.1099,VALID,0,VALID,24.6556,VALID,354,VALID,0,
2012-03-06, 01:33:05,VALID,1000.28,VALID,0,VALID,94.1251,VALID,0,VALID,24.6769,VALID,354,VALID,0,
2012-03-06, 01:34:05,VALID,1000.24,VALID,0,VALID,94.1251,VALID,0,VALID,24.6964,VALID,354,VALID,0.0476562,
2012-03-06, 01:35:05,VALID,1000.26,VALID,0,VALID,94.148,VALID,0,VALID,24.6964,VALID,354,VALID,0,
2012-03-06, 01:36:05,VALID,1000.25,VALID,0,VALID,94.1633,VALID,0,VALID,24.6964,VALID,354,VALID,0.114844,
2012-03-06, 01:37:05,VALID,1000.24,VALID,0,VALID,94.2014,VALID,0,VALID,24.7353,VALID,354,VALID,0.00117188,
2012-03-06, 01:38:05,VALID,1000.24,VALID,0,VALID,94.1633,VALID,0,VALID,24.7353,VALID,354,VALID,0.212891,
2012-03-06, 01:39:05,VALID,1000.24,VALID,0,VALID,94.1633,VALID,0,VALID,24.7548,VALID,352,VALID,0.385547,
2012-03-06, 01:40:05,VALID,1000.22,VALID,0,VALID,94.1709,VALID,0,VALID,24.7724,VALID,352,VALID,0.0121094,
2012-03-06, 01:41:05,VALID,1000.23,VALID,0,VALID,94.1404,VALID,0,VALID,24.7937,VALID,352,VALID,0,
2012-03-06, 01:42:05,VALID,1000.21,VALID,0,VALID,94.0946,VALID,0,VALID,24.8132,VALID,352,VALID,0,
2012-03-06, 01:43:05,VALID,1000.17,VALID,0,VALID,94.1022,VALID,0,VALID,24.8132,VALID,352,VALID,0,
2012-03-06, 01:44:05,VALID,1000.14,VALID,0,VALID,94.0412,VALID,0,VALID,24.8327,VALID,352,VALID,0,
2012-03-06, 01:45:05,VALID,1000.09,VALID,0,VALID,93.9725,VALID,0,VALID,24.8132,VALID,352,VALID,0.223828,
2012-03-06, 01:46:05,VALID,1000.07,VALID,0,VALID,93.9649,VALID,0,VALID,24.8132,VALID,352,VALID,0.54375,
2012-03-06, 01:47:05,VALID,1000.04,VALID,0,VALID,93.9802,VALID,0,VALID,24.8113,VALID,350,VALID,0.317187,
2012-03-06, 01:48:05,VALID,1000.01,VALID,0,VALID,93.9344,VALID,0,VALID,24.8327,VALID,350,VALID,0.323047,
2012-03-06, 01:49:05,VALID,999.977,VALID,0,VALID,93.8429,VALID,0,VALID,24.8132,VALID,350,VALID,0.358203,
2012-03-06, 01:50:05,VALID,999.917,VALID,0,VALID,93.7055,VALID,0,VALID,24.7937,VALID,350,VALID,0.607422,
2012-03-06, 01:51:05,VALID,999.902,VALID,0,VALID,93.6903,VALID,0,VALID,24.7548,VALID,351,VALID,0.546484,
2012-03-06, 01:52:05,VALID,999.858,VALID,0,VALID,93.7513,VALID,0,VALID,24.714,VALID,350,VALID,0.433984,
2012-03-06, 01:53:05,VALID,999.861,VALID,0,VALID,93.8047,VALID,0,VALID,24.714,VALID,351,VALID,0.407031,
2012-03-06, 01:54:05,VALID,999.828,VALID,0,VALID,93.8276,VALID,0,VALID,24.7353,VALID,351,VALID,0.386328,
2012-03-06, 01:55:05,VALID,999.829,VALID,0,VALID,93.8657,VALID,0,VALID,24.7159,VALID,351,VALID,0.516016,
2012-03-06, 01:56:05,VALID,999.813,VALID,0,VALID,93.8657,VALID,0,VALID,24.714,VALID,351,VALID,0.384766,
2012-03-06, 01:57:05,VALID,999.786,VALID,0,VALID,93.881,VALID,0,VALID,24.7353,VALID,351,VALID,0.257422,
2012-03-06, 01:58:05,VALID,999.738,VALID,0,VALID,93.9039,VALID,0,VALID,24.7159,VALID,351,VALID,0.117188,
2012-03-06, 01:59:05,VALID,999.706,VALID,0,VALID,93.8505,VALID,0,VALID,24.7159,VALID,351,VALID,0.364062,
2012-03-06, 02:00:05,VALID,999.687,VALID,0,VALID,93.8581,VALID,0,VALID,24.6945,VALID,349,VALID,0.30625,
2012-03-06, 02:01:05,VALID,999.652,VALID,0,VALID,93.881,VALID,0,VALID,24.7159,VALID,347,VALID,0.525391,
2012-03-06, 02:02:05,VALID,999.678,VALID,0,VALID,93.8886,VALID,0,VALID,24.7353,VALID,345,VALID,0.248047,
2012-03-06, 02:03:05,VALID,999.62,VALID,0,VALID,93.8657,VALID,0,VALID,24.7743,VALID,345,VALID,0.323438,
2012-03-06, 02:04:05,VALID,999.622,VALID,0,VALID,93.8047,VALID,0,VALID,24.7529,VALID,345,VALID,0,
2012-03-06, 02:05:05,VALID,999.62,VALID,0,VALID,93.7589,VALID,0,VALID,24.7529,VALID,337,VALID,0.287891,
2012-03-06, 02:06:05,VALID,999.574,VALID,0,VALID,93.7132,VALID,0,VALID,24.7743,VALID,337,VALID,0.434766,
2012-03-06, 02:07:05,VALID,999.565,VALID,0,VALID,93.6369,VALID,0,VALID,24.7548,VALID,337,VALID,0.232812,
2012-03-06, 02:08:05,VALID,999.577,VALID,0,VALID,93.5224,VALID,0,VALID,24.7353,VALID,337,VALID,0.183984,
2012-03-06, 02:09:05,VALID,999.575,VALID,0,VALID,93.553,VALID,0,VALID,24.7353,VALID,337,VALID,0.319922,
2012-03-06, 02:10:05,VALID,999.558,VALID,0,VALID,93.5606,VALID,0,VALID,24.7159,VALID,337,VALID,0,
2012-03-06, 02:11:05,VALID,999.544,VALID,0,VALID,93.5682,VALID,0,VALID,24.6945,VALID,337,VALID,0,
2012-03-06, 02:12:05,VALID,999.535,VALID,0,VALID,93.5606,VALID,0,VALID,24.675,VALID,337,VALID,0,
2012-03-06, 02:13:05,VALID,999.553,VALID,0,VALID,93.553,VALID,0,VALID,24.6964,VALID,337,VALID,0.164453,
2012-03-06, 02:14:05,VALID,999.57,VALID,0,VALID,93.5911,VALID,0,VALID,24.6556,VALID,337,VALID,0.294922,
2012-03-06, 02:15:05,VALID,999.554,VALID,0,VALID,93.6369,VALID,0,VALID,24.675,VALID,337,VALID,0.392578,
2012-03-06, 02:16:05,VALID,999.526,VALID,0,VALID,93.6598,VALID,0,VALID,24.6556,VALID,289,VALID,0,
2012-03-06, 02:17:05,VALID,999.521,VALID,0,VALID,93.7055,VALID,0,VALID,24.6964,VALID,326,VALID,0.439844,
2012-03-06, 02:18:05,VALID,999.528,VALID,0,VALID,93.6903,VALID,0,VALID,24.6964,VALID,327,VALID,0.166016,
2012-03-06, 02:19:05,VALID,999.511,VALID,0,VALID,93.6598,VALID,0,VALID,24.7159,VALID,335,VALID,0.108984,
2012-03-06, 02:20:05,VALID,999.516,VALID,0,VALID,93.6292,VALID,0,VALID,24.7353,VALID,4,VALID,0,
2012-03-06, 02:21:05,VALID,999.502,VALID,0,VALID,93.6292,VALID,0,VALID,24.714,VALID,3,VALID,0.485156,
2012-03-06, 02:22:05,VALID,999.479,VALID,0,VALID,93.5987,VALID,0,VALID,24.7548,VALID,354,VALID,1.17109,
2012-03-06, 02:23:05,VALID,999.476,VALID,0,VALID,93.5301,VALID,0,VALID,24.7529,VALID,346,VALID,1.00742,
2012-03-06, 02:24:05,VALID,999.479,VALID,0,VALID,93.408,VALID,0,VALID,24.8132,VALID,350,VALID,0.526172,
2012-03-06, 02:25:05,VALID,999.446,VALID,0,VALID,93.347,VALID,0,VALID,24.8327,VALID,350,VALID,0.00117188,
2012-03-06, 02:26:05,VALID,999.452,VALID,0,VALID,93.2249,VALID,0,VALID,24.8113,VALID,349,VALID,0.440234,
2012-03-06, 02:27:05,VALID,999.41,VALID,0,VALID,93.1563,VALID,0,VALID,24.8522,VALID,327,VALID,0.183984,
2012-03-06, 02:28:05,VALID,999.408,VALID,0,VALID,93.1029,VALID,0,VALID,24.8308,VALID,350,VALID,0,
2012-03-06, 02:29:05,VALID,999.391,VALID,0,VALID,93.0342,VALID,0,VALID,24.8503,VALID,350,VALID,0,
2012-03-06, 02:30:05,VALID,999.401,VALID,0,VALID,92.9884,VALID,0,VALID,24.8308,VALID,1,VALID,0.310156,
2012-03-06, 02:31:05,VALID,999.406,VALID,0,VALID,92.9198,VALID,0,VALID,24.8327,VALID,358,VALID,0.686719,
2012-03-06, 02:32:05,VALID,999.406,VALID,0,VALID,92.8892,VALID,0,VALID,24.8327,VALID,346,VALID,0.292188,
2012-03-06, 02:33:05,VALID,999.406,VALID,0,VALID,92.8358,VALID,0,VALID,24.8327,VALID,352,VALID,0.600391,
2012-03-06, 02:34:05,VALID,999.406,VALID,0,VALID,92.7443,VALID,0,VALID,24.8132,VALID,343,VALID,0.556641,
2012-03-06, 02:35:05,VALID,999.395,VALID,0,VALID,92.6909,VALID,0,VALID,24.8327,VALID,324,VALID,0.548047,
2012-03-06, 02:36:05,VALID,999.416,VALID,0,VALID,92.6451,VALID,0,VALID,24.8522,VALID,341,VALID,0.508984,
2012-03-06, 02:37:05,VALID,999.442,VALID,0,VALID,92.607,VALID,0,VALID,24.8327,VALID,341,VALID,0,
2012-03-06, 02:38:05,VALID,999.41,VALID,0,VALID,92.5765,VALID,0,VALID,24.8308,VALID,341,VALID,0,
2012-03-06, 02:39:05,VALID,999.411,VALID,0,VALID,92.5917,VALID,0,VALID,24.8113,VALID,341,VALID,0,
2012-03-06, 02:40:05,VALID,999.398,VALID,0,VALID,92.5536,VALID,0,VALID,24.7919,VALID,291,VALID,0.285937,
2012-03-06, 02:41:05,VALID,999.363,VALID,0,VALID,92.5536,VALID,0,VALID,24.8132,VALID,321,VALID,0.416016,
2012-03-06, 02:42:05,VALID,999.373,VALID,0,VALID,92.5307,VALID,0,VALID,24.7937,VALID,329,VALID,0.0726563,
2012-03-06, 02:43:05,VALID,999.368,VALID,0,VALID,92.5231,VALID,0,VALID,24.7743,VALID,331,VALID,0.426562,
2012-03-06, 02:44:05,VALID,999.364,VALID,0,VALID,92.5078,VALID,0,VALID,24.7743,VALID,352,VALID,0.332031,
2012-03-06, 02:45:05,VALID,999.356,VALID,0,VALID,92.4849,VALID,0,VALID,24.7743,VALID,355,VALID,0.845312,
2012-03-06, 02:46:05,VALID,999.339,VALID,0,VALID,92.4925,VALID,0,VALID,24.7335,VALID,3,VALID,0.777344,
2012-03-06, 02:47:05,VALID,999.346,VALID,0,VALID,92.5078,VALID,0,VALID,24.7548,VALID,349,VALID,0.780469,
2012-03-06, 02:48:05,VALID,999.325,VALID,0,VALID,92.462,VALID,0,VALID,24.714,VALID,341,VALID,0.938672,
2012-03-06, 02:49:05,VALID,999.329,VALID,0,VALID,92.4697,VALID,0,VALID,24.7353,VALID,342,VALID,0.748047,
2012-03-06, 02:50:05,VALID,999.308,VALID,0,VALID,92.4544,VALID,0,VALID,24.7353,VALID,357,VALID,0.511328,
2012-03-06, 02:51:05,VALID,999.294,VALID,0,VALID,92.4544,VALID,0,VALID,24.7159,VALID,341,VALID,0.39375,
2012-03-06, 02:52:05,VALID,999.27,VALID,0,VALID,92.462,VALID,0,VALID,24.7159,VALID,351,VALID,0.780469,
2012-03-06, 02:53:05,VALID,999.273,VALID,0,VALID,92.462,VALID,0,VALID,24.6945,VALID,343,VALID,0.721875,
2012-03-06, 02:54:05,VALID,999.266,VALID,0,VALID,92.4849,VALID,0,VALID,24.7159,VALID,337,VALID,0.491406,
2012-03-06, 02:55:05,VALID,999.246,VALID,0,VALID,92.4773,VALID,0,VALID,24.6945,VALID,356,VALID,0.436719,
2012-03-06, 02:56:05,VALID,999.236,VALID,0,VALID,92.5078,VALID,0,VALID,24.7159,VALID,347,VALID,0.540234,
2012-03-06, 02:57:05,VALID,999.208,VALID,0,VALID,92.462,VALID,0,VALID,24.6964,VALID,345,VALID,0.403516,
2012-03-06, 02:58:05,VALID,999.233,VALID,0,VALID,92.4697,VALID,0,VALID,24.6964,VALID,345,VALID,0.601953,
2012-03-06, 02:59:05,VALID,999.233,VALID,0,VALID,92.4773,VALID,0,VALID,24.6769,VALID,319,VALID,0.651953,
2012-03-06, 03:00:05,VALID,999.218,VALID,0,VALID,92.5078,VALID,0,VALID,24.6964,VALID,310,VALID,0.178906,
2012-03-06, 03:01:05,VALID,999.256,VALID,0,VALID,92.4773,VALID,0,VALID,24.6361,VALID,308,VALID,0.0015625,
2012-03-06, 03:02:05,VALID,999.239,VALID,0,VALID,92.4849,VALID,0,VALID,24.6361,VALID,303,VALID,0.00585938,
2012-03-06, 03:03:05,VALID,999.277,VALID,0,VALID,92.5383,VALID,0,VALID,24.6361,VALID,303,VALID,0,
2012-03-06, 03:04:05,VALID,999.24,VALID,0,VALID,92.5078,VALID,0,VALID,24.638,VALID,303,VALID,0,
2012-03-06, 03:05:05,VALID,999.249,VALID,0,VALID,92.5841,VALID,0,VALID,24.638,VALID,303,VALID,0,
2012-03-06, 03:06:05,VALID,999.247,VALID,0,VALID,92.5993,VALID,0,VALID,24.6166,VALID,303,VALID,0.065625,
2012-03-06, 03:07:05,VALID,999.251,VALID,0,VALID,92.6604,VALID,0,VALID,24.5972,VALID,303,VALID,0.0863281,
2012-03-06, 03:08:05,VALID,999.254,VALID,0,VALID,92.7138,VALID,0,VALID,24.638,VALID,291,VALID,0.199219,
2012-03-06, 03:09:05,VALID,999.277,VALID,0,VALID,92.7214,VALID,0,VALID,24.6166,VALID,281,VALID,0.323828,
2012-03-06, 03:10:05,VALID,999.29,VALID,0,VALID,92.7901,VALID,0,VALID,24.6166,VALID,285,VALID,0.635547,
2012-03-06, 03:11:05,VALID,999.307,VALID,0,VALID,92.7977,VALID,0,VALID,24.6166,VALID,285,VALID,0.755078,
2012-03-06, 03:12:05,VALID,999.324,VALID,0,VALID,92.7443,VALID,0,VALID,24.638,VALID,276,VALID,0.161328,
2012-03-06, 03:13:05,VALID,999.308,VALID,0,VALID,92.6756,VALID,0,VALID,24.6185,VALID,276,VALID,0.0351563,
2012-03-06, 03:14:05,VALID,999.252,VALID,0,VALID,92.6528,VALID,0,VALID,24.599,VALID,276,VALID,0.264062,
2012-03-06, 03:15:05,VALID,999.262,VALID,0,VALID,92.6451,VALID,0,VALID,24.6009,VALID,276,VALID,0.0539063,
2012-03-06, 03:16:05,VALID,999.266,VALID,0,VALID,92.7748,VALID,0,VALID,24.599,VALID,281,VALID,0.759375,
2012-03-06, 03:17:05,VALID,999.247,VALID,0,VALID,92.8358,VALID,0,VALID,24.599,VALID,296,VALID,0.510547,
2012-03-06, 03:18:05,VALID,999.232,VALID,0,VALID,92.7824,VALID,0,VALID,24.5777,VALID,296,VALID,0.135937,
2012-03-06, 03:19:05,VALID,999.222,VALID,0,VALID,92.6833,VALID,0,VALID,24.599,VALID,296,VALID,0,
2012-03-06, 03:20:05,VALID,999.24,VALID,0,VALID,92.6604,VALID,0,VALID,24.599,VALID,296,VALID,0.264844,
2012-03-06, 03:21:05,VALID,999.237,VALID,0,VALID,92.5078,VALID,0,VALID,24.5601,VALID,296,VALID,0.391797,
2012-03-06, 03:22:05,VALID,999.257,VALID,0,VALID,92.4315,VALID,0,VALID,24.5017,VALID,296,VALID,0,
2012-03-06, 03:23:05,VALID,999.292,VALID,0,VALID,92.3934,VALID,0,VALID,24.4822,VALID,296,VALID,0.107031,
2012-03-06, 03:24:05,VALID,999.267,VALID,0,VALID,92.4544,VALID,0,VALID,24.4043,VALID,296,VALID,0.000390625,
2012-03-06, 03:25:05,VALID,999.289,VALID,0,VALID,92.5078,VALID,0,VALID,24.3849,VALID,296,VALID,0.0394531,
2012-03-06, 03:26:05,VALID,999.29,VALID,0,VALID,92.5917,VALID,0,VALID,24.3459,VALID,296,VALID,0,
2012-03-06, 03:27:05,VALID,999.296,VALID,0,VALID,92.6985,VALID,0,VALID,24.307,VALID,296,VALID,0,
2012-03-06, 03:28:05,VALID,999.276,VALID,0,VALID,92.7519,VALID,0,VALID,24.2857,VALID,296,VALID,0,
2012-03-06, 03:29:05,VALID,999.303,VALID,0,VALID,92.813,VALID,0,VALID,24.2662,VALID,296,VALID,0,
2012-03-06, 03:30:05,VALID,999.3,VALID,0,VALID,92.8969,VALID,0,VALID,24.2468,VALID,296,VALID,0,
2012-03-06, 03:31:05,VALID,999.281,VALID,0,VALID,92.9884,VALID,0,VALID,24.2273,VALID,296,VALID,0,
2012-03-06, 03:32:05,VALID,999.294,VALID,0,VALID,93.1105,VALID,0,VALID,24.2291,VALID,296,VALID,0,
2012-03-06, 03:33:05,VALID,999.296,VALID,0,VALID,93.1257,VALID,0,VALID,24.2097,VALID,348,VALID,0.49375,
2012-03-06, 03:34:05,VALID,999.309,VALID,0,VALID,93.0952,VALID,0,VALID,24.1494,VALID,357,VALID,0.550391,
2012-03-06, 03:35:05,VALID,999.268,VALID,0,VALID,93.1334,VALID,0,VALID,24.1105,VALID,357,VALID,0.504297,
2012-03-06, 03:36:05,VALID,999.269,VALID,0,VALID,93.2173,VALID,0,VALID,24.0929,VALID,357,VALID,0.485938,
2012-03-06, 03:37:05,VALID,999.289,VALID,0,VALID,93.3165,VALID,0,VALID,24.0326,VALID,357,VALID,0.473047,
2012-03-06, 03:38:05,VALID,999.272,VALID,0,VALID,93.3394,VALID,0,VALID,23.9919,VALID,357,VALID,0.426562,
2012-03-06, 03:39:05,VALID,999.271,VALID,0,VALID,93.4233,VALID,0,VALID,24.0132,VALID,357,VALID,0.357031,
2012-03-06, 03:40:05,VALID,999.297,VALID,0,VALID,93.5758,VALID,0,VALID,24.015,VALID,357,VALID,0.473047,
2012-03-06, 03:41:04,VALID,999.276,VALID,0,VALID,93.7132,VALID,0,VALID,24.0345,VALID,357,VALID,0.391797,
2012-03-06, 03:42:04,VALID,999.328,VALID,0,VALID,93.7437,VALID,0.0815089,VALID,24.0326,VALID,357,VALID,0.293359,
2012-03-06, 03:43:04,VALID,999.292,VALID,0,VALID,93.7208,VALID,0.0815089,VALID,24.0132,VALID,357,VALID,0.330078,
2012-03-06, 03:44:04,VALID,999.31,VALID,0,VALID,93.7818,VALID,0,VALID,24.0326,VALID,356,VALID,0.5,
2012-03-06, 03:45:04,VALID,999.296,VALID,0,VALID,93.8123,VALID,0,VALID,24.0326,VALID,355,VALID,0.326562,
2012-03-06, 03:46:04,VALID,999.306,VALID,0,VALID,94.0183,VALID,0,VALID,24.0716,VALID,346,VALID,0.525781,
2012-03-06, 03:47:04,VALID,999.296,VALID,0,VALID,93.9039,VALID,0,VALID,24.0929,VALID,346,VALID,0.408203,
2012-03-06, 03:48:04,VALID,999.325,VALID,0,VALID,93.9802,VALID,0,VALID,24.091,VALID,345,VALID,0.639063,